Weather History for KTZR - March, 2013

Change the Weather History Date:

Friday, March 15, 2013

  Actual Average (KCMH) Record (KCMH)
Temperature  
Mean Temperature 37 °F 42 °F  
Max Temperature 48 °F 51 °F 79 °F (1990)
Min Temperature 26 °F 32 °F 4 °F (1993)
Degree Days  
Heating Degree Days 28 24  
Month to date heating degree days 390  
Since 1 July heating degree days 4385  
Cooling Degree Days 0 0  
Month to date cooling degree days 0  
Year to date cooling degree days 0  
Moisture  
Dew Point 30 °F    
Average Humidity 82    
Maximum Humidity 98    
Minimum Humidity 62    
Precipitation  
Precipitation 0.04 in 0.10 in 1.69 in (1919)
Month to date precipitation 1.32  
Year to date precipitation 6.30  
Snow  
Snow 0.00 in 0.20 in 4.50 in (1916)
Month to date snowfall 2.6  
Since 1 July snowfall 24.0  
Snow Depth -    
Sea Level Pressure  
Sea Level Pressure 30.00 in    
Wind  
Wind Speed 6 mph (SW)    
Max Wind Speed 10 mph    
Max Gust Speed 17 mph    
Visibility 9 miles    
Events Rain    
T = Trace of Precipitation, MM = Missing Value Source: NWS Daily Summary

Daily Weather History Graph

Daily Weather History Graph

Search for Another Location

Airport or City:

Trip Planner

Search our weather history database for the weather conditions in past years. The results will help you decide how hot, cold, wet, or windy it might be!

Date:

Astronomy

Mar. 15, 2013 Rise Set
Actual Time 7:43 AM EDT 7:39 PM EDT
Civil Twilight 7:16 AM EDT 8:06 PM EDT
Nautical Twilight 6:45 AM EDT 8:38 PM EDT
Astronomical Twilight 6:13 AM EDT 9:09 PM EDT
Moon 9:33 AM EDT (3/15) 11:52 PM EDT (3/15)
Length of Visible Light 12h 49m
Length of Day
11h 56m
Waxing Crescent, 15% of the Moon is Illuminated
Mar 15
Waxing Crescent
Mar 19
First Quarter
Mar 27
Full
Apr 3
Last Quarter
Apr 10
New

Hourly Weather History & Observations

Time (EDT) Temp. Windchill Dew Point Humidity Pressure Visibility Wind Dir Wind Speed Gust Speed Precip Events Conditions
12:15 AM 29.5 °F 25.9 °F 21.9 °F 73% 30.14 in 10.0 mi SW 3.5 mph - N/A   Clear
12:35 AM 30.0 °F - 21.9 °F 72% 30.15 in 10.0 mi North - - N/A   Clear
12:55 AM 29.5 °F - 21.6 °F 72% 30.14 in 10.0 mi North - - N/A   Clear
1:15 AM 28.8 °F - 21.7 °F 75% 30.14 in 10.0 mi North - - N/A   Clear
1:35 AM 27.5 °F 21.1 °F 21.9 °F 80% 30.13 in 10.0 mi SSW 5.8 mph - N/A   Clear
2:15 AM 27.9 °F - 21.7 °F 78% 30.13 in 10.0 mi North - - N/A   Clear
2:35 AM 27.5 °F 20.2 °F 22.5 °F 81% 30.13 in 10.0 mi SSW 6.9 mph - N/A   Clear
2:55 AM 29.8 °F 23.0 °F 23.0 °F 76% 30.13 in 10.0 mi SW 6.9 mph - N/A   Clear
3:15 AM 30.9 °F 26.2 °F 23.0 °F 72% 30.11 in 10.0 mi SW 4.6 mph - N/A   Clear
3:35 AM 30.2 °F 24.3 °F 23.4 °F 76% 30.10 in 10.0 mi SW 5.8 mph - N/A   Clear
3:55 AM 29.5 °F 24.5 °F 23.0 °F 77% 30.09 in 10.0 mi SW 4.6 mph - N/A   Clear
4:15 AM 29.5 °F 24.5 °F 23.7 °F 79% 30.08 in 10.0 mi SW 4.6 mph - N/A   Clear
4:35 AM 29.5 °F 24.5 °F 23.7 °F 79% 30.08 in 10.0 mi SW 4.6 mph - N/A   Scattered Clouds
4:55 AM 29.3 °F 23.2 °F 24.3 °F 81% 30.07 in 10.0 mi WSW 5.8 mph - N/A   Scattered Clouds
5:15 AM 29.7 °F 23.7 °F 24.4 °F 81% 30.06 in 10.0 mi SW 5.8 mph - N/A   Clear
5:35 AM 28.8 °F 22.6 °F 25.0 °F 86% 30.06 in 10.0 mi SW 5.8 mph - N/A   Clear
5:55 AM 29.3 °F 24.3 °F 25.2 °F 85% 30.06 in 10.0 mi SSW 4.6 mph - N/A   Mostly Cloudy
6:15 AM 29.3 °F 23.2 °F 26.4 °F 89% 30.05 in 10.0 mi SSW 5.8 mph - N/A   Overcast
6:35 AM 28.9 °F 23.9 °F 25.7 °F 88% 30.04 in 10.0 mi SSW 4.6 mph - N/A   Scattered Clouds
6:55 AM 28.2 °F 24.4 °F 25.3 °F 89% 30.04 in 10.0 mi SSW 3.5 mph - N/A   Clear
7:15 AM 27.5 °F - 24.8 °F 90% 30.04 in 10.0 mi North - - N/A   Clear
7:20 AM 26.6 °F 20.0 °F 24.8 °F 93% 30.03 in 10.0 mi SSW 5.8 mph - N/A   Clear
7:35 AM 27.5 °F - 24.8 °F 90% 30.03 in 10.0 mi North - - N/A   Clear
7:55 AM 27.5 °F 21.1 °F 25.0 °F 90% 30.02 in 10.0 mi SSW 5.8 mph - N/A   Clear
8:15 AM 28.2 °F 22.0 °F 25.7 °F 90% 30.02 in 10.0 mi SSW 5.8 mph - N/A   Clear
8:55 AM 30.2 °F 22.6 °F 28.4 °F 93% 30.01 in 10.0 mi South 8.1 mph - N/A   Clear
9:50 AM 33.8 °F 25.8 °F 30.2 °F 87% 30.01 in 10.0 mi SSW 10.4 mph - N/A   Clear
10:50 AM 37.4 °F 30.3 °F 32.0 °F 81% 30.00 in 10.0 mi SW 10.4 mph - N/A   Clear
11:47 AM 39.2 °F 33.6 °F 32.0 °F 75% 29.97 in 10.0 mi SW 8.1 mph - N/A   Clear
12:47 PM 42.8 °F 38.0 °F 33.8 °F 70% 29.94 in 10.0 mi WSW 8.1 mph - N/A   Clear
1:47 PM 44.6 °F 40.7 °F 33.8 °F 66% 29.94 in 10.0 mi West 6.9 mph - N/A   Clear
2:55 PM 46.4 °F 41.9 °F 35.6 °F 66% 29.90 in 10.0 mi SW 9.2 mph - N/A   Clear
3:50 PM 46.4 °F 41.5 °F 35.6 °F 66% 29.88 in 7.0 mi SW 10.4 mph 17.3 mph N/A   Scattered Clouds
4:50 PM 48.2 °F - 35.6 °F 62% 29.87 in 7.0 mi SW 9.2 mph - N/A   Scattered Clouds
5:50 PM 48.2 °F - 35.6 °F 62% 29.87 in 7.0 mi WSW 8.1 mph 16.1 mph N/A   Clear
6:50 PM 48.2 °F - 35.6 °F 62% 29.87 in 10.0 mi WSW 8.1 mph - N/A   Overcast
9:15 PM 43.7 °F - 38.8 °F 83% 29.87 in 10.0 mi Calm Calm - N/A Rain Light Rain
9:35 PM 43.5 °F 41.9 °F 39.4 °F 85% 29.85 in 7.0 mi SE 3.5 mph - N/A Rain Light Rain
9:55 PM 43.0 °F 41.3 °F 40.1 °F 90% 29.85 in 7.0 mi NE 3.5 mph - N/A Rain Rain
10:15 PM 42.3 °F 40.5 °F 41.2 °F 96% 29.87 in 7.0 mi West 3.5 mph - N/A   Drizzle
10:35 PM 42.3 °F - 41.2 °F 96% 29.88 in 5.0 mi Calm Calm - 0.02 in Rain Rain
10:55 PM 41.5 °F 38.6 °F 41.0 °F 98% 29.87 in 5.0 mi South 4.6 mph - 0.02 in Rain Rain
11:15 PM 42.1 °F 39.2 °F 41.0 °F 96% 29.87 in 5.0 mi South 4.6 mph - 0.01 in Rain Light Rain
11:35 PM 41.9 °F 40.0 °F 41.2 °F 97% 29.86 in 5.0 mi South 3.5 mph - 0.02 in Rain Light Rain
11:55 PM 41.7 °F 39.8 °F 41.0 °F 97% 29.84 in 5.0 mi SE 3.5 mph - 0.02 in Rain Light Rain